Satellite-Ground Cal/Val Region Overpasses Predictions

Prediction of Satellite NPP Overpassing Cal/Val Region: PacNW

Region Location: (Latitude: 10.00, Longitude: 139.50) to (Latitude: 22.70, Longitude: 165.60).

Table of predicted overpasses for the next 14.0 days since TLE Epoch: 6/19/2021
Interval Starting Time Starting Location Ending Time Ending Location
1 06/20/2021 02:39:10 ( 10.00, 159.87) 06/20/2021 02:42:46 ( 22.68, 156.85)
2 06/20/2021 15:11:04 ( 22.69, 157.11) 06/20/2021 15:14:40 ( 10.01, 154.09)
3 06/21/2021 02:20:09 ( 10.04, 164.62) 06/21/2021 02:23:44 ( 22.66, 161.62)
4 06/21/2021 14:52:03 ( 22.66, 161.86) 06/21/2021 14:55:38 ( 10.04, 158.85)
5 06/22/2021 03:42:38 ( 10.01, 144.01) 06/22/2021 03:46:14 ( 22.69, 140.99)
6 06/22/2021 14:34:13 ( 18.52, 165.59) 06/22/2021 14:36:38 ( 10.00, 163.60)
7 06/22/2021 16:14:32 ( 22.68, 141.24) 06/22/2021 16:16:34 ( 15.52, 139.50)
8 06/23/2021 03:23:37 ( 10.04, 148.75) 06/23/2021 03:27:12 ( 22.66, 145.75)
9 06/23/2021 15:55:31 ( 22.65, 145.99) 06/23/2021 15:59:06 ( 10.03, 142.98)
10 06/24/2021 03:04:36 ( 10.02, 153.51) 06/24/2021 03:08:12 ( 22.70, 150.50)
11 06/24/2021 15:36:30 ( 22.68, 150.75) 06/24/2021 15:40:05 ( 10.06, 147.75)
12 06/25/2021 02:45:35 ( 10.05, 158.26) 06/25/2021 02:49:10 ( 22.67, 155.26)
13 06/25/2021 15:17:29 ( 22.64, 155.50) 06/25/2021 15:21:04 ( 10.02, 152.49)
14 06/26/2021 02:26:34 ( 10.02, 163.02) 06/26/2021 02:30:09 ( 22.65, 160.02)
15 06/26/2021 14:58:28 ( 22.67, 160.26) 06/26/2021 15:02:03 ( 10.05, 157.25)
16 06/27/2021 02:10:11 ( 19.34, 165.59) 06/27/2021 02:11:08 ( 22.68, 164.77)
17 06/27/2021 03:49:02 ( 10.00, 142.41) 06/27/2021 03:52:30 ( 22.21, 139.51)
18 06/27/2021 14:39:26 ( 22.69, 165.02) 06/27/2021 14:43:02 ( 10.02, 162.00)
19 06/27/2021 16:20:56 ( 22.69, 139.65) 06/27/2021 16:21:05 ( 22.16, 139.51)
20 06/28/2021 03:30:02 ( 10.04, 147.16) 06/28/2021 03:33:37 ( 22.66, 144.15)
21 06/28/2021 16:01:56 ( 22.66, 144.39) 06/28/2021 16:05:31 ( 10.04, 141.39)
22 06/29/2021 03:11:01 ( 10.01, 151.92) 06/29/2021 03:14:37 ( 22.69, 148.90)
23 06/29/2021 15:42:54 ( 22.68, 149.15) 06/29/2021 15:46:30 ( 10.01, 146.14)
24 06/30/2021 02:52:00 ( 10.04, 156.66) 06/30/2021 02:55:35 ( 22.67, 153.66)
25 06/30/2021 15:23:54 ( 22.65, 153.90) 06/30/2021 15:27:29 ( 10.03, 150.90)
26 07/01/2021 02:32:59 ( 10.02, 161.42) 07/01/2021 02:36:34 ( 22.64, 158.42)
27 07/01/2021 15:04:52 ( 22.67, 158.66) 07/01/2021 15:08:27 ( 10.06, 155.66)
28 07/02/2021 02:14:41 ( 12.58, 165.59) 07/02/2021 02:17:33 ( 22.68, 163.17)
29 07/02/2021 03:55:28 ( 10.06, 140.80) 07/02/2021 03:57:03 ( 15.64, 139.50)
30 07/02/2021 14:45:51 ( 22.70, 163.42) 07/02/2021 14:49:27 ( 10.02, 160.40)
31 07/03/2021 03:36:27 ( 10.03, 145.56) 07/03/2021 03:40:02 ( 22.66, 142.55)
32 07/03/2021 14:29:53 ( 11.93, 165.60) 07/03/2021 14:30:25 ( 10.05, 165.17)
